TimeEDT,TemperatureF,Dew PointF,Humidity,Sea Level PressureIn,VisibilityMPH,Wind Direction,Wind SpeedMPH,Gust SpeedMPH,PrecipitationIn,Events,Conditions,WindDirDegrees,DateUTC
12:51 AM,72.0,64.0,76,29.93,10.0,Calm,Calm,-,N/A,,Clear,0,2013-06-12 04:51:00
1:51 AM,71.1,64.0,78,29.92,10.0,Calm,Calm,-,N/A,,Clear,0,2013-06-12 05:51:00
2:51 AM,69.1,64.0,84,29.93,10.0,Calm,Calm,-,N/A,,Clear,0,2013-06-12 06:51:00
3:51 AM,68.0,64.0,87,29.92,10.0,Calm,Calm,-,N/A,,Partly Cloudy,0,2013-06-12 07:51:00
4:51 AM,68.0,64.0,87,29.91,10.0,Calm,Calm,-,N/A,,Mostly Cloudy,0,2013-06-12 08:51:00
5:51 AM,69.1,64.0,84,29.91,10.0,Calm,Calm,-,0.00,,Mostly Cloudy,0,2013-06-12 09:51:00
6:51 AM,70.0,64.0,81,29.92,10.0,SSW,3.5,-,N/A,,Clear,200,2013-06-12 10:51:00
7:51 AM,72.0,64.9,78,29.93,10.0,SSW,4.6,-,N/A,,Clear,210,2013-06-12 11:51:00
8:51 AM,77.0,68.0,74,29.93,10.0,SW,4.6,-,N/A,,Clear,230,2013-06-12 12:51:00
9:51 AM,81.0,70.0,69,29.93,10.0,WSW,6.9,-,N/A,,Clear,250,2013-06-12 13:51:00
10:51 AM,82.0,71.1,69,29.94,10.0,Variable,4.6,-,N/A,,Partly Cloudy,0,2013-06-12 14:51:00
11:51 AM,82.9,72.0,69,29.95,10.0,West,4.6,-,N/A,,Partly Cloudy,260,2013-06-12 15:51:00
12:51 PM,84.0,73.0,69,29.93,10.0,SW,6.9,-,N/A,,Clear,220,2013-06-12 16:51:00
1:51 PM,88.0,73.0,61,29.92,10.0,WSW,8.1,-,N/A,,Partly Cloudy,250,2013-06-12 17:51:00
2:51 PM,90.0,73.0,57,29.90,10.0,SW,11.5,-,N/A,,Partly Cloudy,230,2013-06-12 18:51:00
3:51 PM,90.0,70.0,52,29.88,10.0,Variable,5.8,-,N/A,,Clear,0,2013-06-12 19:51:00
4:51 PM,90.0,73.0,57,29.85,10.0,SW,8.1,-,N/A,,Scattered Clouds,230,2013-06-12 20:51:00
5:51 PM,89.1,73.0,59,29.83,10.0,SSW,8.1,-,N/A,,Clear,200,2013-06-12 21:51:00
6:51 PM,88.0,73.0,61,29.80,10.0,SW,4.6,-,N/A,,Clear,230,2013-06-12 22:51:00
7:51 PM,86.0,71.1,61,29.81,10.0,SW,4.6,-,N/A,,Clear,230,2013-06-12 23:51:00
8:51 PM,84.0,70.0,63,29.79,10.0,SSW,3.5,-,N/A,,Clear,210,2013-06-13 00:51:00
9:51 PM,82.0,69.1,65,29.79,10.0,South,5.8,-,N/A,,Clear,190,2013-06-13 01:51:00
10:51 PM,81.0,69.1,67,29.80,10.0,SSW,8.1,-,N/A,,Clear,210,2013-06-13 02:51:00
11:51 PM,80.1,68.0,67,29.79,10.0,SSW,4.6,-,N/A,,Clear,200,2013-06-13 03:51:00